EDT,Max TemperatureF,Mean TemperatureF,Min TemperatureF,Max Dew PointF,MeanDew PointF,Min DewpointF,Max Humidity, Mean Humidity, Min Humidity, Max Sea Level PressureIn, Mean Sea Level PressureIn, Min Sea Level PressureIn, Max VisibilityMiles, Mean VisibilityMiles, Min VisibilityMiles, Max Wind SpeedMPH, Mean Wind SpeedMPH, Max Gust SpeedMPH,PrecipitationIn, CloudCover, Events, WindDirDegrees
2013-7-1,73,65,57,60,56,52,97,73,49,30.12,30.05,29.96,10,9,7,17,7,22,0.04,2,Rain,50
2013-7-2,74,67,59,64,58,53,93,83,72,30.12,30.11,30.08,5,4,2,16,8,20,T,7,Rain,60
2013-7-3,82,71,60,70,65,59,100,84,67,30.18,30.14,30.10,10,5,0,9,2,13,0.00,5,Fog,242
2013-7-4,84,74,63,74,67,63,100,85,69,30.16,30.12,30.04,10,4,0,15,5,21,0.16,4,Fog-Rain,239
2013-7-5,86,78,69,70,68,66,90,73,55,30.12,30.07,30.01,10,10,8,15,9,21,0.01,4,,223
2013-7-6,85,77,69,68,65,61,90,69,48,30.09,30.04,29.99,10,10,9,17,9,23,0.00,2,,231
2013-7-7,77,72,67,72,69,61,93,83,73,30.01,29.96,29.93,10,5,1,10,4,14,0.35,6,Rain,298
2013-7-8,80,73,65,66,64,58,100,81,62,30.04,29.98,29.93,10,7,1,15,5,18,1.12,6,Rain,39
2013-7-9,86,75,63,71,67,62,93,76,58,30.07,30.00,29.91,10,10,7,9,2,12,0.00,1,,79
2013-7-10,83,75,67,73,69,63,90,80,69,29.89,29.75,29.65,10,7,1,41,10,60,0.72,7,Rain-Thunderstorm,201
2013-7-11,78,70,62,68,60,55,97,71,45,30.06,29.90,29.72,10,10,6,14,6,18,T,3,,313
2013-7-12,76,66,56,57,55,52,93,68,43,30.21,30.16,30.07,10,10,10,12,4,16,0.00,0,,52
2013-7-13,85,69,53,67,59,52,93,69,44,30.29,30.24,30.21,10,9,1,9,2,15,0.00,1,,47
2013-7-14,88,77,66,70,68,65,97,74,50,30.31,30.26,30.21,10,10,7,12,3,16,0.00,4,,246
2013-7-15,89,79,68,69,66,64,90,68,46,30.24,30.20,30.17,10,10,8,13,6,17,0.00,0,,247
2013-7-16,90,79,68,73,68,66,93,72,50,30.25,30.20,30.16,10,9,4,9,2,14,0.00,1,,268
2013-7-17,92,82,71,75,71,66,93,76,59,30.16,30.08,30.00,10,9,3,14,9,22,0.07,1,Rain-Thunderstorm,238
2013-7-18,86,77,67,75,69,66,97,81,65,30.03,29.99,29.90,10,7,1,17,5,25,0.15,3,Rain,236
2013-7-19,92,81,70,75,70,66,93,73,52,29.87,29.70,29.59,10,8,0,33,15,48,0.37,3,Fog-Rain-Thunderstorm,228
2013-7-20,83,74,65,72,65,54,90,65,40,29.87,29.68,29.63,10,9,2,20,10,26,0.12,5,Rain,244
2013-7-21,73,62,51,53,50,48,93,67,41,30.05,30.01,29.89,10,10,10,12,5,17,0.00,2,,6
2013-7-22,77,63,48,60,51,46,96,71,46,30.04,29.98,29.81,10,8,0,9,2,13,0.00,1,Fog,14
2013-7-23,85,74,62,68,63,59,93,74,54,29.79,29.63,29.53,10,10,10,20,5,25,0.02,3,Rain,228
2013-7-24,72,61,49,64,50,45,83,66,48,30.06,29.83,29.56,10,10,9,18,9,24,0.00,5,,296
2013-7-25,71,58,44,51,47,43,100,71,41,30.19,30.14,30.08,10,9,1,14,3,16,0.00,0,,64
2013-7-26,77,61,44,56,51,44,100,72,43,30.16,30.10,30.04,10,8,0,12,3,16,0.00,0,Fog,64
2013-7-27,81,64,47,64,54,45,100,74,48,30.04,29.99,29.90,10,8,1,14,4,17,0.04,1,Rain,66
2013-7-28,76,69,62,68,65,61,100,87,74,29.95,29.90,29.87,10,9,3,14,5,20,0.24,7,Rain-Thunderstorm,158
2013-7-29,74,64,54,61,56,52,93,71,49,30.09,30.02,29.96,10,8,1,22,7,26,0.18,5,Rain-Thunderstorm,233
2013-7-30,74,65,55,59,57,54,100,77,53,30.15,30.11,30.09,10,10,4,14,7,20,0.00,2,,240
2013-7-31,80,66,52,62,56,52,93,69,45,30.13,30.09,29.98,10,6,0,13,4,16,0.00,1,Fog,219